Beatrice, NE

11:01 PM CST on November 13, 2019 (GMT -0600)
Beatrice Municipal

Weather History for KBIE - October, 2019

Change the Weather History Date:

Saturday, October 12, 2019

  Actual Average Record
Temperature  
Mean Temperature 46 °F -  
Max Temperature 65 °F 70 °F 93 °F (1975)
Min Temperature 29 °F 46 °F 29 °F (1977)
Degree Days  
Heating Degree Days 18    
Moisture  
Dew Point 29 °F    
Average Humidity 62    
Maximum Humidity 86    
Minimum Humidity 26    
Precipitation  
Precipitation 0.00 in - - ()
Sea Level Pressure  
Sea Level Pressure 29.98 in    
Wind  
Wind Speed 6 mph (West)    
Max Wind Speed 18 mph    
Max Gust Speed 24 mph    
Visibility 10 miles    
Events      
Averages and records for this station are not official NWS values.
T = Trace of Precipitation, MM = Missing Value Source: NWS Daily Summary

Daily Weather History Graph

Daily Weather History Graph

Search for Another Location

Airport or City:

Astronomy

Oct. 12, 2019 Rise Set
Actual Time 7:34 AM CDT 6:51 PM CDT
Civil Twilight 7:07 AM CDT 7:19 PM CDT
Nautical Twilight 6:35 AM CDT 7:50 PM CDT
Astronomical Twilight 6:04 AM CDT 8:22 PM CDT
Moon 6:48 PM CDT (10/12) 6:12 AM CDT (10/12)
Length of Visible Light 12h 12m
Length of Day
11h 17m
Waxing Gibbous, 99% of the Moon is Illuminated
Oct 12
Waxing Gibbous
Oct 13
Full
Oct 21
Last Quarter
Oct 27
New
Nov 4
First Quarter

Hourly Weather History & Observations

Time (CDT) Temp. Windchill Dew Point Humidity Pressure Visibility Wind Dir Wind Speed Gust Speed Precip Events Conditions
12:15 AM 30.6 °F 25.8 °F 26.4 °F 85% 30.14 in 10.0 mi SW 4.6 mph - N/A   Clear
12:35 AM 31.1 °F 26.4 °F 26.6 °F 83% 30.13 in 10.0 mi SW 4.6 mph - N/A   Clear
12:55 AM 30.4 °F 23.6 °F 25.5 °F 82% 30.12 in 10.0 mi SSW 6.9 mph - N/A   Clear
1:15 AM 32.0 °F 27.5 °F 26.1 °F 79% 30.12 in 10.0 mi SSW 4.6 mph - N/A   Clear
1:35 AM 32.0 °F 27.5 °F 25.5 °F 77% 30.12 in 10.0 mi SSW 4.6 mph - N/A   Clear
1:55 AM 31.5 °F 26.8 °F 25.2 °F 78% 30.11 in 10.0 mi SSW 4.6 mph - N/A   Clear
2:15 AM 31.5 °F - 25.5 °F 79% 30.10 in 10.0 mi Calm Calm - N/A   Clear
2:35 AM 31.8 °F 28.5 °F 25.3 °F 77% 30.09 in 10.0 mi SW 3.5 mph - N/A   Clear
2:55 AM 31.6 °F 26.0 °F 25.3 °F 78% 30.09 in 10.0 mi SW 5.8 mph - N/A   Clear
3:15 AM 32.0 °F 26.4 °F 25.5 °F 77% 30.09 in 10.0 mi SW 5.8 mph - N/A   Clear
3:35 AM 31.3 °F 26.6 °F 25.5 °F 79% 30.09 in 10.0 mi SW 4.6 mph - N/A   Clear
3:55 AM 30.9 °F 24.3 °F 25.5 °F 80% 30.08 in 10.0 mi SSW 6.9 mph - N/A   Clear
4:15 AM 31.8 °F 26.2 °F 25.5 °F 78% 30.08 in 10.0 mi SW 5.8 mph - N/A   Clear
4:35 AM 30.6 °F 25.8 °F 25.3 °F 81% 30.07 in 10.0 mi WSW 4.6 mph - N/A   Clear
4:55 AM 30.6 °F 25.8 °F 25.5 °F 82% 30.07 in 10.0 mi WSW 4.6 mph - N/A   Clear
5:15 AM 30.7 °F 24.9 °F 25.3 °F 80% 30.08 in 10.0 mi WSW 5.8 mph - N/A   Clear
5:35 AM 31.5 °F 25.8 °F 25.5 °F 79% 30.08 in 10.0 mi WSW 5.8 mph - N/A   Clear
5:55 AM 31.1 °F 25.4 °F 25.5 °F 80% 30.07 in 10.0 mi WSW 5.8 mph - N/A   Clear
6:15 AM 30.6 °F 23.8 °F 25.2 °F 80% 30.07 in 10.0 mi WSW 6.9 mph - N/A   Clear
6:35 AM 31.1 °F 26.4 °F 25.3 °F 79% 30.06 in 10.0 mi West 4.6 mph - N/A   Clear
6:55 AM 29.8 °F 24.9 °F 25.2 °F 83% 30.05 in 10.0 mi SSW 4.6 mph - N/A   Clear
7:15 AM 30.6 °F - 25.2 °F 80% 30.05 in 10.0 mi Calm Calm - N/A   Clear
7:35 AM 30.7 °F 27.3 °F 25.5 °F 81% 30.03 in 10.0 mi SE 3.5 mph - N/A   Clear
7:55 AM 30.4 °F 25.6 °F 26.1 °F 84% 30.03 in 10.0 mi ESE 4.6 mph - N/A   Clear
8:15 AM 31.1 °F - 26.1 °F 82% 30.03 in 10.0 mi Calm Calm - N/A   Clear
8:35 AM 31.8 °F - 27.3 °F 83% 30.03 in 10.0 mi Calm Calm - N/A   Clear
8:55 AM 34.0 °F 28.8 °F 28.8 °F 81% 30.05 in 10.0 mi North 5.8 mph - N/A   Clear
9:15 AM 35.6 °F - 28.6 °F 76% 30.04 in 10.0 mi Calm Calm - N/A   Clear
9:35 AM 37.2 °F 34.7 °F 28.8 °F 71% 30.03 in 10.0 mi West 3.5 mph - N/A   Clear
9:55 AM 39.2 °F 35.0 °F 28.4 °F 65% 30.03 in 10.0 mi West 5.8 mph - N/A   Clear
10:15 AM 41.2 °F 36.0 °F 28.9 °F 62% 30.03 in 10.0 mi West 8.1 mph - N/A   Clear
10:35 AM 42.8 °F 38.6 °F 28.4 °F 57% 30.02 in 10.0 mi West 6.9 mph - N/A   Clear
10:55 AM 45.7 °F 41.5 °F 28.4 °F 51% 30.00 in 10.0 mi WSW 8.1 mph - N/A   Clear
11:15 AM 47.8 °F - 27.7 °F 46% 29.99 in 10.0 mi SW 8.1 mph - N/A   Clear
11:35 AM 50.0 °F - 28.8 °F 44% 29.97 in 10.0 mi SW 9.2 mph - N/A   Clear
11:55 AM 52.2 °F - 28.4 °F 40% 29.97 in 10.0 mi West 10.4 mph - N/A   Clear
12:15 PM 54.3 °F - 27.9 °F 36% 29.96 in 10.0 mi SW 12.7 mph - N/A   Clear
12:35 PM 56.8 °F - 28.6 °F 34% 29.97 in 10.0 mi West 15.0 mph - N/A   Clear
12:55 PM 58.8 °F - 29.3 °F 33% 29.96 in 10.0 mi West 16.1 mph 20.7 mph N/A   Clear
1:15 PM 59.4 °F - 28.9 °F 31% 29.95 in 10.0 mi WNW 15.0 mph 19.6 mph N/A   Clear
1:35 PM 60.1 °F - 28.4 °F 30% 29.94 in 10.0 mi West 12.7 mph 23.0 mph N/A   Clear
1:55 PM 60.8 °F - 29.8 °F 31% 29.93 in 10.0 mi West 13.8 mph 20.7 mph N/A   Clear
2:15 PM 61.0 °F - 30.4 °F 32% 29.93 in 10.0 mi West 11.5 mph 21.9 mph N/A   Clear
2:35 PM 62.4 °F - 30.4 °F 30% 29.91 in 10.0 mi West 17.3 mph 21.9 mph N/A   Clear
2:55 PM 63.3 °F - 29.1 °F 28% 29.90 in 10.0 mi West 18.4 mph 24.2 mph N/A   Clear
3:35 PM 64.0 °F - 28.0 °F 26% 29.89 in 10.0 mi West 16.1 mph 24.2 mph N/A   Clear
3:55 PM 64.6 °F - 28.6 °F 26% 29.88 in 10.0 mi West 13.8 mph 21.9 mph N/A   Clear
4:15 PM 64.9 °F - 29.5 °F 26% 29.88 in 10.0 mi West 16.1 mph 23.0 mph N/A   Clear
4:35 PM 64.4 °F - 28.8 °F 26% 29.87 in 10.0 mi West 9.2 mph 21.9 mph N/A   Clear
4:55 PM 64.4 °F - 29.1 °F 27% 29.86 in 10.0 mi WNW 13.8 mph 17.3 mph N/A   Clear
5:15 PM 64.4 °F - 29.3 °F 27% 29.86 in 10.0 mi West 9.2 mph - N/A   Clear
5:35 PM 63.7 °F - 30.6 °F 29% 29.86 in 10.0 mi WNW 8.1 mph - N/A   Clear
5:55 PM 63.1 °F - 31.1 °F 30% 29.85 in 10.0 mi NW 9.2 mph - N/A   Clear
6:15 PM 58.5 °F - 34.7 °F 41% 29.86 in 10.0 mi NNW 6.9 mph - N/A   Clear
6:35 PM 55.4 °F - 35.2 °F 47% 29.86 in 10.0 mi NNW 4.6 mph - N/A   Clear
6:55 PM 52.5 °F - 35.4 °F 52% 29.86 in 10.0 mi NNW 4.6 mph - N/A   Clear
7:15 PM 48.6 °F - 35.2 °F 60% 29.87 in 10.0 mi NW 4.6 mph - N/A   Clear
7:35 PM 46.0 °F 43.1 °F 34.0 °F 63% 29.88 in 10.0 mi NW 5.8 mph - N/A   Clear
7:55 PM 44.1 °F 41.5 °F 34.0 °F 68% 29.88 in 10.0 mi NW 4.6 mph - N/A   Clear
8:15 PM 43.2 °F 39.7 °F 33.4 °F 69% 29.89 in 10.0 mi NW 5.8 mph - N/A   Clear
8:35 PM 41.0 °F - 33.4 °F 74% 29.89 in 10.0 mi Calm Calm - N/A   Clear
8:55 PM 42.8 °F 41.1 °F 32.2 °F 66% 29.90 in 10.0 mi NW 3.5 mph - N/A   Clear
9:15 PM 42.1 °F 39.2 °F 31.6 °F 67% 29.90 in 10.0 mi WNW 4.6 mph - N/A   Clear
9:35 PM 40.1 °F 36.9 °F 32.0 °F 73% 29.90 in 10.0 mi West 4.6 mph - N/A   Clear
9:55 PM 38.8 °F 36.5 °F 31.8 °F 76% 29.91 in 10.0 mi West 3.5 mph - N/A   Clear
10:15 PM 39.2 °F 35.9 °F 32.0 °F 75% 29.91 in 10.0 mi WNW 4.6 mph - N/A   Clear
10:35 PM 38.7 °F 35.2 °F 32.0 °F 77% 29.91 in 10.0 mi West 4.6 mph - N/A   Clear
10:55 PM 38.5 °F 35.0 °F 32.4 °F 79% 29.91 in 10.0 mi WSW 4.6 mph - N/A   Clear
11:15 PM 37.8 °F - 32.9 °F 83% 29.91 in 10.0 mi Calm Calm - N/A   Clear
11:35 PM 36.0 °F 32.1 °F 32.2 °F 86% 29.91 in 10.0 mi West 4.6 mph - N/A   Clear
11:55 PM 37.9 °F - 32.0 °F 79% 29.91 in 10.0 mi Calm Calm - N/A   Clear